• In Kazakhstan
  • List of Countries
  • For 7 days
  • Water Temperature
  • Satellite Maps
  • Weather Map
  • News
  • Weather Widgets
  • user-avatar
    Login

    Hourly Weather Los Angeles

    Today, 25 November, Saturday

    Time Temperature Precipitation Wind Pressure Humidity
    00:00 +24°C° 0 mm 1 mps 751 mmHg 42%
    01:00 +23°C° 0 mm 1 mps 751 mmHg 43%
    02:00 +23°C° 0 mm 1 mps 751 mmHg 44%
    03:00 +23°C° 0 mm 1 mps 751 mmHg 44%
    04:00 +23°C° 0 mm 1 mps 751 mmHg 45%
    05:00 +23°C° 0 mm 1 mps 752 mmHg 45%
    06:00 +23°C° 0 mm 1 mps 752 mmHg 45%
    07:00 +22°C° 0 mm 1 mps 752 mmHg 45%
    08:00 +25°C° 0 mm 1 mps 752 mmHg 40%
    09:00 +27°C° 0 mm 1 mps 753 mmHg 34%
    10:00 +29°C° 0 mm 1 mps 753 mmHg 28%
    11:00 +29°C° 0 mm 2 mps 753 mmHg 27%
    12:00 +30°C° 0 mm 2 mps 753 mmHg 26%
    13:00 +31°C° 0 mm 2 mps 752 mmHg 24%
    14:00 +30°C° 0 mm 2 mps 752 mmHg 26%
    15:00 +29°C° 0 mm 2 mps 752 mmHg 28%
    16:00 +29°C° 0 mm 2 mps 752 mmHg 29%
    17:00 +27°C° 0 mm 1 mps 752 mmHg 32%
    18:00 +26°C° 0 mm 1 mps 753 mmHg 36%
    19:00 +24°C° 0 mm 1 mps 753 mmHg 39%
    20:00 +24°C° 0 mm 1 mps 753 mmHg 40%
    21:00 +23°C° 0 mm 1 mps 754 mmHg 41%
    22:00 +23°C° 0 mm 1 mps 754 mmHg 41%
    23:00 +23°C° 0 mm 1 mps 754 mmHg 40%

    Tomorrow, 26 November, Sunday

    Time Temperature Precipitation Wind Pressure Humidity
    00:00 +22°C° 0 mm 1 mps 754 mmHg 39%
    01:00 +22°C° 0 mm 1 mps 754 mmHg 38%
    02:00 +22°C° 0 mm 1 mps 754 mmHg 37%
    03:00 +22°C° 0 mm 1 mps 754 mmHg 35%
    04:00 +22°C° 0 mm 1 mps 753 mmHg 34%
    05:00 +22°C° 0 mm 1 mps 754 mmHg 33%
    06:00 +22°C° 0 mm 1 mps 754 mmHg 32%
    07:00 +21°C° 0 mm 1 mps 754 mmHg 31%
    08:00 +23°C° 0 mm 1 mps 754 mmHg 28%
    09:00 +25°C° 0 mm 1 mps 754 mmHg 26%
    10:00 +27°C° 0 mm 1 mps 754 mmHg 23%
    11:00 +28°C° 0 mm 1 mps 754 mmHg 22%
    12:00 +29°C° 0 mm 2 mps 753 mmHg 21%
    13:00 +29°C° 0 mm 2 mps 753 mmHg 20%
    14:00 +28°C° 0 mm 2 mps 752 mmHg 22%
    15:00 +28°C° 0 mm 2 mps 752 mmHg 24%
    16:00 +27°C° 0 mm 2 mps 752 mmHg 26%
    17:00 +26°C° 0 mm 2 mps 752 mmHg 31%
    18:00 +24°C° 0 mm 2 mps 752 mmHg 36%
    19:00 +23°C° 0 mm 2 mps 752 mmHg 40%
    20:00 +23°C° 0 mm 2 mps 752 mmHg 42%
    21:00 +21°C° 0 mm 2 mps 752 mmHg 44%
    22:00 +21°C° 0 mm 2 mps 753 mmHg 46%
    23:00 +20°C° 0 mm 2 mps 752 mmHg 48%

    Day after tomorrow, 27 November, Monday

    Time Temperature Precipitation Wind Pressure Humidity
    00:00 +20°C° 0 mm 2 mps 752 mmHg 51%
    01:00 +20°C° 0 mm 3 mps 752 mmHg 53%
    02:00 +19°C° 0.1 mm 3 mps 751 mmHg 57%
    03:00 +19°C° 0.1 mm 3 mps 751 mmHg 61%
    04:00 +19°C° 0.1 mm 4 mps 751 mmHg 65%
    05:00 +19°C° 0.1 mm 5 mps 751 mmHg 67%
    06:00 +17°C° 0.1 mm 6 mps 752 mmHg 70%
    07:00 +17°C° 0.1 mm 7 mps 752 mmHg 72%
    08:00 +17°C° 0 mm 6 mps 752 mmHg 63%
    09:00 +19°C° 0 mm 6 mps 753 mmHg 55%
    10:00 +19°C° 0 mm 5 mps 753 mmHg 47%
    11:00 +20°C° 0 mm 5 mps 753 mmHg 43%
    12:00 +20°C° 0 mm 5 mps 752 mmHg 40%
    13:00 +21°C° 0 mm 5 mps 752 mmHg 37%
    14:00 +21°C° 0 mm 5 mps 752 mmHg 35%
    15:00 +21°C° 0 mm 5 mps 752 mmHg 34%
    16:00 +21°C° 0 mm 5 mps 752 mmHg 33%
    17:00 +20°C° 0 mm 4 mps 752 mmHg 36%
    18:00 +19°C° 0 mm 3 mps 753 mmHg 38%
    19:00 +18°C° 0 mm 3 mps 753 mmHg 40%
    20:00 +18°C° 0 mm 3 mps 754 mmHg 40%
    21:00 +18°C° 0 mm 2 mps 754 mmHg 40%
    22:00 +18°C° 0 mm 2 mps 754 mmHg 39%
    23:00 +17°C° 0 mm 2 mps 754 mmHg 38%

    28 November, Tuesday

    Time Temperature Precipitation Wind Pressure Humidity
    00:00 +17°C° 0 mm 2 mps 754 mmHg 37%
    01:00 +17°C° 0 mm 2 mps 754 mmHg 37%
    02:00 +17°C° 0 mm 2 mps 754 mmHg 35%
    03:00 +17°C° 0 mm 2 mps 754 mmHg 33%
    04:00 +17°C° 0 mm 2 mps 754 mmHg 32%
    05:00 +17°C° 0 mm 2 mps 754 mmHg 31%
    06:00 +17°C° 0 mm 2 mps 754 mmHg 31%
    07:00 +16°C° 0 mm 2 mps 755 mmHg 31%
    08:00 +18°C° 0 mm 2 mps 755 mmHg 27%
    09:00 +20°C° 0 mm 2 mps 755 mmHg 23%
    10:00 +23°C° 0 mm 2 mps 755 mmHg 19%
    11:00 +24°C° 0 mm 2 mps 754 mmHg 17%
    12:00 +25°C° 0 mm 2 mps 754 mmHg 16%
    13:00 +26°C° 0 mm 2 mps 753 mmHg 14%
    14:00 +26°C° 0 mm 2 mps 753 mmHg 15%
    15:00 +26°C° 0 mm 2 mps 752 mmHg 15%
    16:00 +25°C° 0 mm 2 mps 752 mmHg 15%
    17:00 +24°C° 0 mm 2 mps 752 mmHg 17%
    18:00 +23°C° 0 mm 2 mps 753 mmHg 18%
    19:00 +20°C° 0 mm 2 mps 753 mmHg 20%
    20:00 +20°C° 0 mm 2 mps 753 mmHg 20%
    21:00 +21°C° 0 mm 1 mps 753 mmHg 20%
    22:00 +20°C° 0 mm 1 mps 753 mmHg 20%
    23:00 +20°C° 0 mm 1 mps 753 mmHg 20%

    29 November, Wednesday

    Time Temperature Precipitation Wind Pressure Humidity
    00:00 +20°C° 0 mm 1 mps 752 mmHg 20%
    01:00 +20°C° 0 mm 1 mps 752 mmHg 20%
    02:00 +19°C° 0 mm 1 mps 752 mmHg 20%
    03:00 +19°C° 0 mm 1 mps 752 mmHg 20%
    04:00 +19°C° 0 mm 1 mps 752 mmHg 20%
    05:00 +18°C° 0 mm 2 mps 752 mmHg 19%
    06:00 +18°C° 0 mm 2 mps 753 mmHg 19%
    07:00 +18°C° 0 mm 2 mps 753 mmHg 19%
    08:00 +19°C° 0 mm 2 mps 753 mmHg 17%
    09:00 +20°C° 0 mm 2 mps 753 mmHg 16%
    10:00 +21°C° 0 mm 2 mps 754 mmHg 15%
    11:00 +23°C° 0 mm 2 mps 753 mmHg 14%
    12:00 +24°C° 0 mm 1 mps 753 mmHg 14%
    13:00 +24°C° 0 mm 1 mps 752 mmHg 13%
    14:00 +24°C° 0 mm 1 mps 753 mmHg 14%
    15:00 +23°C° 0 mm 1 mps 753 mmHg 16%
    16:00 +23°C° 0 mm 1 mps 753 mmHg 17%
    17:00 +22°C° 0 mm 1 mps 753 mmHg 18%
    18:00 +22°C° 0 mm 1 mps 753 mmHg 19%
    19:00 +21°C° 0 mm 2 mps 754 mmHg 19%
    20:00 +20°C° 0 mm 2 mps 754 mmHg 22%
    21:00 +20°C° 0 mm 2 mps 754 mmHg 24%
    22:00 +21°C° 0 mm 1 mps 754 mmHg 26%
    23:00 +20°C° 0 mm 2 mps 754 mmHg 25%

    30 November, Thursday

    Time Temperature Precipitation Wind Pressure Humidity
    00:00 +20°C° 0 mm 2 mps 753 mmHg 24%
    01:00 +20°C° 0 mm 2 mps 753 mmHg 22%
    02:00 +20°C° 0 mm 2 mps 753 mmHg 24%
    03:00 +19°C° 0 mm 2 mps 753 mmHg 25%
    04:00 +19°C° 0 mm 2 mps 753 mmHg 27%
    05:00 +19°C° 0 mm 2 mps 753 mmHg 28%
    06:00 +19°C° 0 mm 1 mps 753 mmHg 29%
    07:00 +19°C° 0 mm 1 mps 753 mmHg 30%
    08:00 +20°C° 0 mm 1 mps 753 mmHg 29%
    09:00 +20°C° 0 mm 2 mps 753 mmHg 28%
    10:00 +23°C° 0 mm 2 mps 753 mmHg 27%
    11:00 +23°C° 0 mm 2 mps 752 mmHg 29%
    12:00 +23°C° 0 mm 2 mps 752 mmHg 31%
    13:00 +22°C° 0 mm 3 mps 751 mmHg 33%
    14:00 +22°C° 0.3 mm 3 mps 751 mmHg 38%
    15:00 +21°C° 0.3 mm 3 mps 751 mmHg 42%
    16:00 +20°C° 0.3 mm 4 mps 751 mmHg 47%
    17:00 +20°C° 0.6 mm 3 mps 751 mmHg 53%
    18:00 +19°C° 0.6 mm 3 mps 751 mmHg 59%
    19:00 +18°C° 0.6 mm 2 mps 752 mmHg 65%
    20:00 +17°C° 0.2 mm 2 mps 752 mmHg 66%
    21:00 +17°C° 0.2 mm 2 mps 752 mmHg 68%
    22:00 +17°C° 0.2 mm 2 mps 752 mmHg 70%
    23:00 +17°C° 0.1 mm 2 mps 752 mmHg 70%
    Show more